Weather History for KCEY - May, 2013

Change the Weather History Date:

Thursday, May 16, 2013

  Actual Average (KPAH) Record (KPAH)
Temperature  
Mean Temperature 72 °F 67 °F  
Max Temperature 77 °F 78 °F 91 °F (2001)
Min Temperature 66 °F 56 °F 36 °F (1997)
Degree Days  
Heating Degree Days 0 2  
Month to date heating degree days 46  
Since 1 July heating degree days 4110  
Cooling Degree Days 6 4  
Month to date cooling degree days 46  
Year to date cooling degree days 88  
Growing Degree Days 22 (Base 50)    
Moisture  
Dew Point 59 °F    
Average Humidity 66    
Maximum Humidity 94    
Minimum Humidity 57    
Precipitation  
Precipitation 0.01 in 0.16 in 3.50 in (1948)
Month to date precipitation 2.77  
Year to date precipitation 19.05  
Snow  
Snow 0.00 in 0.00 in 0.00 in (2002)
Month to date snowfall 0.0  
Since 1 July snowfall 9.1  
Snow Depth -    
Sea Level Pressure  
Sea Level Pressure 29.97 in    
Wind  
Wind Speed 7 mph (SSW)    
Max Wind Speed 12 mph    
Max Gust Speed 20 mph    
Visibility 10 miles    
Events      
T = Trace of Precipitation, MM = Missing Value Source: NWS Daily Summary

Daily Weather History Graph

Daily Weather History Graph

Search for Another Location

Airport or City:

Trip Planner

Search our weather history database for the weather conditions in past years. The results will help you decide how hot, cold, wet, or windy it might be!

Date:

Astronomy

May. 16, 2013 Rise Set
Actual Time 5:45 AM CDT 7:54 PM CDT
Civil Twilight 5:16 AM CDT 8:23 PM CDT
Nautical Twilight 4:40 AM CDT 8:59 PM CDT
Astronomical Twilight 4:02 AM CDT 9:38 PM CDT
Moon 11:15 AM CDT (5/16) 12:18 AM CDT (5/16)
Length of Visible Light 15h 07m
Length of Day
14h 09m
Waxing Crescent, 36% of the Moon is Illuminated
May 16
Waxing Crescent
May 17
First Quarter
May 24
Full
May 31
Last Quarter
Jun 8
New

Hourly Weather History & Observations

Time (CDT) Temp. Dew Point Humidity Pressure Visibility Wind Dir Wind Speed Gust Speed Precip Events Conditions
12:15 AM 68.0 °F 55.4 °F 64% 29.97 in 10.0 mi SW 8.1 mph - N/A   Clear
12:35 AM 68.0 °F 55.4 °F 64% 29.96 in 10.0 mi SW 9.2 mph - N/A   Clear
12:55 AM 68.0 °F 55.4 °F 64% 29.95 in 10.0 mi SSW 9.2 mph - N/A   Clear
1:15 AM 68.0 °F 55.4 °F 64% 29.95 in 10.0 mi SW 9.2 mph - N/A   Clear
1:35 AM 68.0 °F 55.4 °F 64% 29.95 in 10.0 mi SW 8.1 mph - N/A   Clear
1:55 AM 68.0 °F 55.4 °F 64% 29.95 in 10.0 mi SW 9.2 mph - N/A   Clear
2:15 AM 68.0 °F 55.4 °F 64% 29.95 in 10.0 mi SW 9.2 mph - N/A   Partly Cloudy
2:35 AM 69.8 °F 55.4 °F 60% 29.95 in 10.0 mi SW 6.9 mph 19.6 mph N/A   Mostly Cloudy
2:55 AM 68.0 °F 55.4 °F 64% 29.95 in 10.0 mi SW 6.9 mph - N/A   Scattered Clouds
3:15 AM 69.8 °F 55.4 °F 60% 29.95 in 10.0 mi WSW 9.2 mph - N/A   Mostly Cloudy
3:35 AM 69.8 °F 55.4 °F 60% 29.95 in 10.0 mi WSW 11.5 mph - N/A   Overcast
3:55 AM 69.8 °F 55.4 °F 60% 29.94 in 10.0 mi WSW 11.5 mph - N/A   Overcast
4:15 AM 69.8 °F 55.4 °F 60% 29.94 in 10.0 mi WSW 9.2 mph - N/A   Mostly Cloudy
4:35 AM 68.0 °F 55.4 °F 64% 29.95 in 10.0 mi WSW 10.4 mph - N/A   Mostly Cloudy
4:55 AM 68.0 °F 57.2 °F 68% 29.95 in 10.0 mi NW 3.5 mph - N/A   Partly Cloudy
5:15 AM 66.2 °F 57.2 °F 73% 29.96 in 10.0 mi WSW 5.8 mph - N/A   Mostly Cloudy
5:35 AM 66.2 °F 57.2 °F 73% 29.97 in 10.0 mi WSW 5.8 mph - N/A   Mostly Cloudy
5:55 AM 68.0 °F 57.2 °F 68% 29.98 in 10.0 mi West 6.9 mph - N/A   Mostly Cloudy
6:15 AM 66.2 °F 57.2 °F 73% 29.99 in 10.0 mi WSW 10.4 mph - N/A   Overcast
6:35 AM 66.2 °F 57.2 °F 73% 30.00 in 10.0 mi SW 8.1 mph - N/A   Scattered Clouds
6:55 AM 68.0 °F 57.2 °F 68% 30.00 in 10.0 mi West 6.9 mph - N/A   Clear
7:15 AM 68.0 °F 57.2 °F 68% 30.01 in 10.0 mi West 6.9 mph - N/A   Clear
7:35 AM 68.0 °F 57.2 °F 68% 30.01 in 10.0 mi WSW 6.9 mph - N/A   Clear
7:55 AM 68.0 °F 59.0 °F 73% 30.01 in 10.0 mi WSW 4.6 mph - N/A   Clear
8:15 AM 68.0 °F 59.0 °F 73% 30.01 in 10.0 mi WSW 3.5 mph - N/A   Clear
8:35 AM 69.8 °F 60.8 °F 73% 30.01 in 10.0 mi SW 3.5 mph - N/A   Clear
8:55 AM 71.6 °F 60.8 °F 69% 30.02 in 10.0 mi SW 4.6 mph - N/A   Clear
9:15 AM 71.6 °F 60.8 °F 69% 30.02 in 10.0 mi SW 3.5 mph - N/A   Clear
9:35 AM 71.6 °F 60.8 °F 69% 30.02 in 10.0 mi SSW 6.9 mph - N/A   Clear
9:55 AM 73.4 °F 60.8 °F 65% 30.01 in 10.0 mi SW 8.1 mph - N/A   Clear
10:15 AM 73.4 °F 59.0 °F 61% 30.01 in 10.0 mi SW 9.2 mph - N/A   Clear
10:35 AM 75.2 °F 59.0 °F 57% 30.01 in 10.0 mi West 5.8 mph - N/A   Clear
10:55 AM 75.2 °F 59.0 °F 57% 30.01 in 10.0 mi West 10.4 mph - N/A   Clear
11:15 AM 75.2 °F 59.0 °F 57% 30.01 in 10.0 mi WSW 9.2 mph - N/A   Clear
11:35 AM 75.2 °F 59.0 °F 57% 30.00 in 10.0 mi West 8.1 mph - N/A   Partly Cloudy
11:55 AM 75.2 °F 59.0 °F 57% 30.00 in 10.0 mi WSW 8.1 mph - N/A   Partly Cloudy
12:15 PM 73.4 °F 59.0 °F 61% 30.00 in 10.0 mi WSW 3.5 mph - N/A   Scattered Clouds
12:35 PM 73.4 °F 59.0 °F 61% 29.99 in 10.0 mi SSW 5.8 mph - N/A   Mostly Cloudy
12:55 PM 73.4 °F 59.0 °F 61% 29.99 in 10.0 mi WSW 3.5 mph - N/A   Overcast
1:15 PM 73.4 °F 60.8 °F 65% 29.99 in 9.0 mi South 4.6 mph - N/A   Mostly Cloudy
1:35 PM 73.4 °F 59.0 °F 61% 29.98 in 10.0 mi South 3.5 mph - N/A   Mostly Cloudy
1:55 PM 73.4 °F 59.0 °F 61% 29.98 in 10.0 mi South 5.8 mph - N/A   Scattered Clouds
2:15 PM 73.4 °F 59.0 °F 61% 29.97 in 10.0 mi South 3.5 mph - N/A   Mostly Cloudy
2:35 PM 73.4 °F 59.0 °F 61% 29.97 in 10.0 mi SE 3.5 mph - N/A   Partly Cloudy
2:55 PM 75.2 °F 59.0 °F 57% 29.96 in 10.0 mi Calm Calm - N/A   Partly Cloudy
3:15 PM 75.2 °F 59.0 °F 57% 29.96 in 10.0 mi Calm Calm - N/A   Partly Cloudy
3:35 PM 75.2 °F 59.0 °F 57% 29.96 in 10.0 mi South 6.9 mph - N/A   Partly Cloudy
3:55 PM 77.0 °F 60.8 °F 57% 29.95 in 10.0 mi SSE 4.6 mph - N/A   Partly Cloudy
4:15 PM 77.0 °F 62.6 °F 61% 29.94 in 10.0 mi SSE 4.6 mph - N/A   Clear
4:35 PM 77.0 °F 62.6 °F 61% 29.94 in 10.0 mi South 6.9 mph - N/A   Clear
4:55 PM 77.0 °F 62.6 °F 61% 29.94 in 10.0 mi South 3.5 mph - N/A   Clear
5:15 PM 77.0 °F 62.6 °F 61% 29.94 in 10.0 mi SE 4.6 mph - N/A   Clear
5:35 PM 77.0 °F 62.6 °F 61% 29.93 in 10.0 mi SE 3.5 mph - N/A   Scattered Clouds
5:55 PM 73.4 °F 64.4 °F 73% 29.93 in 3.0 mi ESE 5.8 mph - N/A   Mostly Cloudy
6:15 PM 71.6 °F 68.0 °F 88% 29.93 in 10.0 mi SE 3.5 mph - 0.01 in   Mostly Cloudy
6:35 PM 69.8 °F 68.0 °F 94% 29.93 in 10.0 mi Calm Calm - 0.01 in   Mostly Cloudy
6:55 PM 73.4 °F 64.4 °F 73% 29.93 in 10.0 mi SW 8.1 mph - 0.01 in   Scattered Clouds
7:15 PM 73.4 °F 60.8 °F 65% 29.93 in 10.0 mi SW 4.6 mph - N/A   Partly Cloudy
7:35 PM 71.6 °F 59.0 °F 64% 29.94 in 10.0 mi SSW 3.5 mph - N/A   Clear
7:55 PM 68.0 °F 60.8 °F 78% 29.94 in 10.0 mi South 3.5 mph - N/A   Clear
8:15 PM 66.2 °F 60.8 °F 83% 29.93 in 10.0 mi South 4.6 mph - N/A   Clear
8:35 PM 66.2 °F 59.0 °F 78% 29.94 in 10.0 mi South 3.5 mph - N/A   Mostly Cloudy
8:55 PM 66.2 °F 59.0 °F 78% 29.94 in 10.0 mi SSW 4.6 mph - N/A   Mostly Cloudy
9:15 PM 68.0 °F 57.2 °F 68% 29.95 in 10.0 mi SSW 5.8 mph - N/A   Mostly Cloudy
9:35 PM 68.0 °F 57.2 °F 68% 29.95 in 10.0 mi South 4.6 mph - N/A   Scattered Clouds
9:55 PM 68.0 °F 57.2 °F 68% 29.95 in 10.0 mi South 5.8 mph - N/A   Clear
10:15 PM 68.0 °F 57.2 °F 68% 29.96 in 10.0 mi South 4.6 mph - N/A   Partly Cloudy
10:35 PM 66.2 °F 57.2 °F 73% 29.96 in 10.0 mi South 4.6 mph - N/A   Clear
10:55 PM 66.2 °F 57.2 °F 73% 29.96 in 10.0 mi South 3.5 mph - N/A   Clear
11:15 PM 66.2 °F 57.2 °F 73% 29.96 in 10.0 mi South 4.6 mph - N/A   Clear
11:35 PM 66.2 °F 57.2 °F 73% 29.96 in 10.0 mi South 4.6 mph - N/A   Mostly Cloudy
11:55 PM 66.2 °F 57.2 °F 73% 29.97 in 10.0 mi South 3.5 mph - N/A   Overcast